Regional Weather Roundup
Issued by NWS

Home | Current Version | Previous Version | Graphics & Text | Print | Product List | Glossary On
Versions: 1 2 3 4 5 6 7 8 9 10 11 12 13 14 15 16 17 18 19 20 21 22 23 24 25 26 27
000
ASUS45 KBOU 220706
RWRCO

WEATHER ROUNDUP FOR COLORADO
NATIONAL WEATHER SERVICE DENVER/BOULDER CO
100 AM MDT TUE APR 22 2014

NOTE: "FAIR" INDICATES FEW OR NO CLOUDS BELOW 12000 FEET WITH NO
SIGNIFICANT WEATHER AND/OR OBSTRUCTIONS TO VISIBILITY.

COZ001>005-013-030-031-220800-
...NORTHWEST COLORADO...

CITY           SKY/WX    TMP DP  RH WIND       PRES   REMARKS
CRAIG          PTCLDY    42  32  67 E5        30.12F
HAYDEN         PTCLDY    46  27  46 E12       30.16S
MEEKER         PTCLDY    41  32  70 NE6       30.13F
MOUNT WERNER   PTCLDY    43  16  33 S15       30.34S
STEAMBOAT SPGS PTCLDY    43  24  47 CALM      30.16F
WALDEN         PTCLDY    32  25  74 SE10      30.21S WCI  24
$$

COZ006>008-011-220800-
...WEST CENTRAL VALLEYS...

CITY           SKY/WX    TMP DP  RH WIND       PRES   REMARKS
GRAND JUNCTION PTCLDY    56  31  38 E14       30.04F
MONTROSE       PTCLDY    54  29  38 E9        30.14S
EAGLE          PTCLDY    43  28  56 CALM      30.21S
RIFLE          PTCLDY    47  31  53 CALM      30.12S
DELTA          NOT AVBL
NUCLA          NOT AVBL
$$

COZ017>023-064>068-220800-
...SOUTHWEST COLORADO...

CITY           SKY/WX    TMP DP  RH WIND       PRES   REMARKS
DURANGO        CLEAR     43  26  51 NE3       30.20S
CORTEZ         CLEAR     41  29  62 CALM      30.14F
PAGOSA SPRINGS CLEAR     41  24  50 CALM      30.27S
TELLURIDE      CLEAR     43  27  52 SE6       30.32F
WOLF CREEK PAS PTCLDY    34  21  60 SW21G29   30.44F WCI  22
$$

COZ009-010-012-014-032>034-037-058>063-220800-
...CENTRAL COLORADO...

CITY           SKY/WX    TMP DP  RH WIND       PRES   REMARKS
ASPEN          PTCLDY    41  27  57 SW7       30.22F
BUENA VISTA    PTCLDY    37  30  78 SW6       30.29F
COPPER MTN     PTCLDY    37  21  52 S17G23    30.42F
BERTHOUD PASS  FAIR      30  21  69 W15G21    30.43F WCI  19
COTTONWOOD PAS PTCLDY    41  30  65 CALM      30.35F
GUNNISON       PTCLDY    39  27  60 CALM      30.30S
KREMMLING      CLEAR     34  27  75 CALM      30.24S
LEADVILLE      PTCLDY    31  21  66 NE7       30.34F WCI  24
MONARCH PASS   PTCLDY    34  19  55 SW16      30.54F WCI  23
SALIDA         PTCLDY    43  32  64 SW8       30.35S
SUNLIGHT       PTCLDY    37  27  65 CALM      30.37S
WILKERSON PASS PTCLDY    34  28  80 SW7       30.41F WCI  28
$$

COZ069>075-220800-
...SAN LUIS VALLEY/SANGRE DE CRISTO MOUNTAINS...

CITY           SKY/WX    TMP DP  RH WIND       PRES   REMARKS
ALAMOSA        PTCLDY    39  34  82 SW3       30.25S
LA VETA PASS   PTCLDY    39  32  75 SW6       30.36F
SAGUACHE       PTCLDY    41  27  56 N7        30.28F
$$

COZ035-036-038>040-220800-
...NORTHERN COLORADO FRONT RANGE...

CITY           SKY/WX    TMP DP  RH WIND       PRES   REMARKS
DENVER INTL AP PTCLDY    56  29  35 S25G33    30.10F
DMNS CITY PARK   N/A     57  32  38 S12       30.11S
AURORA         PTCLDY    54  30  40 S28       30.11F
FRONT RANGE AP NOT AVBL
ERIE MUNI ARPT PTCLDY    47  41  78 CALM      30.09F
BOULDER MUN AP PTCLDY    52  37  58 CALM      30.09F
CENTENNIAL     PTCLDY    53  30  41 S20G25    30.14F
BROOMFIELD     PTCLDY    46  37  71 SW7       30.12F
FORT COLLINS   MOCLDY    46  36  66 N7        30.11F
LONGMONT       NOT AVBL
$$

COZ041-046-047-076>085-087-088-220800-
...PIKES PEAK/PALMER DIVIDE AND SOUTHERN FOOTHILLS...

CITY           SKY/WX    TMP DP  RH WIND       PRES   REMARKS
COLO. SPRINGS  PTCLDY    47  30  51 E6        30.22F
A. F. ACADEMY  PTCLDY    40  31  69 NW6       30.22F
ELLICOTT       NOT AVBL
FALCON         PTCLDY    43  30  59 S3        30.24F
FORT CARSON    PTCLDY    46  31  54 E7        30.19F
LIMON          PTCLDY    45  30  55 S8        30.19F
MONUMENT HILL  PTCLDY    45  32  61 S13       30.20F
TRINIDAD       PTCLDY    53  42  66 W14       30.20F
$$

COZ042>045-048>051-090-091-220800-
...NORTHEAST COLORADO...

CITY           SKY/WX    TMP DP  RH WIND       PRES   REMARKS
GREELEY ARPT   MOCLDY    45  34  65 SE8       30.10F
AKRON          CLEAR     50  31  48 S16       30.14F
BURLINGTON     PTCLDY    44  31  60 S12       30.18F
WRAY           CLEAR     52  31  44 SE9       30.16S
STERLING       NOT AVBL
HOLYOKE        NOT AVBL
FORT MORGAN    NOT AVBL
$$

COZ086-089-092>099-220800-
...SOUTHEAST COLORADO...

CITY           SKY/WX    TMP DP  RH WIND       PRES   REMARKS
PUEBLO         MOCLDY    53  36  52 E8        30.15F
LA JUNTA       PTCLDY    53  38  56 SE8       30.17S
LAMAR          CLEAR     49  36  61 CALM      30.16S
SPRINGFIELD      N/A     48  40  73 S3        30.20R
$$



USA.gov is the U.S. government's official web portal to all federal, state and local government web resources and services.